map of ITB home
Great Circle Mapper logo
ITB - Airport
Location
City:  Itaituba, Pará, Brazil
ICAO / IATA:SBIH / ITB

Details
Type:Airport (Aerodrome, Airfield)
Use:Public/Civil
Latitude:4°14'32"S (-4.242341)
Longitude:56°00'02"W (-56.000668)
Datum:WGS 1984
Elevation:110 ft (34 m)
Variation:17.63°W (WMM2015 magnetic declination)
-0.10° annual change
Runways:1
Longest:5266 × 98 ft (1605 × 30 m), paved

Time
Time Zone:UTC-4
Local Time:

Weather
METAR:SBIH 040100Z 00000KT 9999 FEW013 26/25 Q1011
TAF:SBIH 032200Z 0400/0412 00000KT 9999 FEW015 TN22/0406Z TX27/0412Z
BECMG 0411/0413 34003KT SCT008
RMK PDZ

Related Locations
Nearby:
Farthest:NAH: 12335 mi / 19851 km
Tahuna (Naha), Sulawesi Island, ID

Find:

   beyond  
but within

Other Information
Maps:
NOTAMs:
Links:
Sources:

  
flag of Brazil
flag of Pará
  

Sectional Chart

Flight Planning
at skyvector.com

Satellite Image

Google Maps Satellite View

 

Copyright © 2004-2015 Karl L. Swartz. All rights reserved.
The Great Circle Mapper name and logo are trademarks of the Great Circle Mapper.
All other trademarks mentioned herein belong to their respective owners.
Please see credits for attibutions and further copyright information.

  Follow gcmap on Facebook Follow gcmap on Twitter Follow gcmap on Google+

hCard Microformat

Geo Microformat